Location: Newark
(44.3248°N, 23.7839°E)
Time: 18:29:21
(UTC+00:00)

NOAA 19 - Pass Details

Date: 27 April 2024
Orbit: 839 x 859 km, 99.0° (Epoch: 29 May)

Event Time Altitude Azimuth Distance (km) Brightness Sun altitude
Exits shadow 19:39:42 15° 199° (SSW) 2,100 7.0 -20.8°
Maximum altitude 19:43:44 39° 262° (W) 1,241 6.3 -21.3°
Drops below altitude 10° 19:48:50 10° 331° (NNW) 2,465 8.7 -21.9°
Sets 19:51:22 0° 339° (NNW) 3,404 9.6 -22.1°
